Weather History for KARR - October, 2013

Change the Weather History Date:

Thursday, October 10, 2013

  Actual Average Record
Temperature  
Mean Temperature 59 °F 53 °F  
Max Temperature 76 °F 65 °F 85 °F (2010)
Min Temperature 41 °F 41 °F 24 °F (2009)
Degree Days  
Heating Degree Days 6 13  
Month to date heating degree days 42 114  
Since 1 July heating degree days 171 267  
Cooling Degree Days 0 0  
Month to date cooling degree days 14 9  
Year to date cooling degree days 745 656  
Growing Degree Days 8 (Base 50)    
Moisture  
Dew Point 47 °F    
Average Humidity 72    
Maximum Humidity 100    
Minimum Humidity 43    
Precipitation  
Precipitation 0.00 in 0.10 in 0.38 in (2001)
Month to date precipitation 0.40 1.02  
Year to date precipitation 27.85 29.66  
Sea Level Pressure  
Sea Level Pressure 30.13 in    
Wind  
Wind Speed 3 mph (ESE)    
Max Wind Speed 12 mph    
Max Gust Speed 14 mph    
Visibility 7 miles    
Events      
T = Trace of Precipitation, MM = Missing Value Source: NWS Daily Summary

Daily Weather History Graph

Daily Weather History Graph

Search for Another Location

Airport or City:

Trip Planner

Search our weather history database for the weather conditions in past years. The results will help you decide how hot, cold, wet, or windy it might be!

Date:

Astronomy

Oct. 10, 2013 Rise Set
Actual Time 7:00 AM CDT 6:20 PM CDT
Civil Twilight 6:32 AM CDT 6:47 PM CDT
Nautical Twilight 6:00 AM CDT 7:20 PM CDT
Astronomical Twilight 5:28 AM CDT 7:52 PM CDT
Moon 12:55 PM CDT (10/10) 10:54 PM CDT (10/10)
Length of Visible Light 12h 15m
Length of Day
11h 19m
Waxing Crescent, 36% of the Moon is Illuminated
Oct 10
Waxing Crescent
Oct 11
First Quarter
Oct 18
Full
Oct 26
Last Quarter
Nov 3
New

Hourly Weather History & Observations

Time (CDT) Temp. Dew Point Humidity Pressure Visibility Wind Dir Wind Speed Gust Speed Precip Events Conditions
12:52 AM 46.9 °F 44.1 °F 90% 30.16 in 8.0 mi Calm Calm - N/A   Clear
1:52 AM 46.9 °F 44.1 °F 90% 30.16 in 7.0 mi Calm Calm - N/A   Clear
2:52 AM 45.0 °F 43.0 °F 93% 30.15 in 6.0 mi Calm Calm - N/A   Clear
3:52 AM 43.0 °F 43.0 °F 100% 30.15 in 6.0 mi Calm Calm - N/A   Clear
3:57 AM 42.8 °F 42.8 °F 100% 30.15 in 1.5 mi Calm Calm - N/A   Clear
4:05 AM 42.8 °F 41.0 °F 93% 30.15 in 0.8 mi Calm Calm - N/A   Clear
4:09 AM 42.8 °F 39.2 °F 87% 30.15 in 2.0 mi Calm Calm - N/A   Clear
4:16 AM 42.8 °F 41.0 °F 93% 30.15 in 4.0 mi Calm Calm - N/A   Clear
4:52 AM 42.1 °F 39.9 °F 92% 30.16 in 7.0 mi Calm Calm - N/A   Clear
5:52 AM 44.1 °F 42.1 °F 93% 30.16 in 3.0 mi Calm Calm - N/A   Clear
6:52 AM 42.1 °F 39.9 °F 92% 30.18 in 2.0 mi Calm Calm - N/A   Clear
6:59 AM 42.8 °F 41.0 °F 93% 30.17 in 4.0 mi Calm Calm - N/A   Clear
7:52 AM 46.0 °F 44.1 °F 93% 30.18 in 4.0 mi Calm Calm - N/A   Clear
8:52 AM 55.9 °F 50.0 °F 80% 30.18 in 7.0 mi Calm Calm - N/A   Clear
9:52 AM 62.1 °F 52.0 °F 70% 30.19 in 10.0 mi Calm Calm - N/A   Clear
10:52 AM 69.1 °F 52.0 °F 54% 30.18 in 10.0 mi ESE 3.5 mph - N/A   Clear
11:52 AM 71.1 °F 51.1 °F 49% 30.17 in 10.0 mi South 5.8 mph - N/A   Clear
12:52 PM 73.9 °F 53.1 °F 48% 30.14 in 10.0 mi SE 6.9 mph - N/A   Clear
1:52 PM 73.0 °F 51.1 °F 46% 30.12 in 10.0 mi Variable 4.6 mph - N/A   Clear
2:52 PM 73.9 °F 52.0 °F 46% 30.09 in 10.0 mi South 5.8 mph - N/A   Clear
3:52 PM 75.9 °F 52.0 °F 43% 30.08 in 10.0 mi Calm Calm - N/A   Clear
4:52 PM 75.0 °F 53.1 °F 46% 30.07 in 10.0 mi ESE 6.9 mph - N/A   Clear
5:52 PM 70.0 °F 54.0 °F 57% 30.06 in 10.0 mi SE 5.8 mph - N/A   Clear
6:52 PM 64.0 °F 52.0 °F 65% 30.07 in 10.0 mi Calm Calm - N/A   Clear
7:52 PM 59.0 °F 52.0 °F 78% 30.07 in 10.0 mi Calm Calm - N/A   Clear
8:52 PM 59.0 °F 52.0 °F 78% 30.06 in 10.0 mi East 8.1 mph - N/A   Clear
9:52 PM 57.9 °F 51.1 °F 78% 30.06 in 10.0 mi East 6.9 mph - N/A   Clear
10:52 PM 57.0 °F 50.0 °F 77% 30.06 in 9.0 mi East 5.8 mph - N/A   Clear
11:52 PM 57.0 °F 50.0 °F 77% 30.05 in 8.0 mi East 5.8 mph - N/A   Clear